STARLINK-2396, 47815

Orbit data source: Space-Track

STARLINK-2396, 47815 is a payload satellite owned by SpaceX/Seattle (US) in LEO that was launched on Thu, 11 Mar 2021 UTC via an FALCON 9 launch vehicle from the Air Force Eastern Test Range (AFETR). Payload-class satellites include a variety of spacecraft equipped with specific instruments for various scientific and technological missions. These include communications satellites like Starlink; space stations such as the ISS; scientific satellites like the Hubble; Earth observation satellites from companies like Planet Labs, Umbra, and HawkEye 360; GPS; miniature CubeSats for education and research; and military/defense satellites.

Loading next visibility...
Identifier
47815, 2021-018AE
Orbit
LEO
Country
Flag of USUS
Related business
Manufacturer
SpaceX/Seattle
Mission
Operational Commercial Communications
Bus & Motor
STARLINK, Unknown motor
Mass
260 kg wet, ~248 kg dry
Launch date (UTC)
2021-03-11 (5 years ago)
Launch vehicle
FALCON 9
Launch site
Air Force Eastern Test Range (AFETR)
Object type
Payload
Rocket body
Debris
Shape & HBR
Box + 1 Pan, 10.1 m
Radar Cross Section
13.562 m², Large (>1 m²)

Expand to show TLE details & history
Last TLE update: 9 hours ago

TLE from 9 hours ago
0 STARLINK-2396
1 47815U 21018AE  26120.10081775  .00010341  00000-0  34443-3 0  9997
2 47815  53.1607   3.6915 0001026  77.5096 282.6020 15.31709076284593
Epoch: 2026-04-30T02:25Z
TLE epoch observation values (Epoch: 2026-04-30T02:25:10.653Z)
Latitude
-0.00004°
Longitude
109.34481°
Altitude
471.46 km
Speed
7.632 km/s
True Right ascension
00h 14m 45s
True Declination
0° 00' 00"
Sunlit
Object was in daylight at epoch
Visualization orbit readout
Latitude
Unknown
Longitude
Unknown
Altitude
Unknown
Speed
Unknown
Apparent Right ascension
Unknown
Apparent Declination
Unknown
Sunlit
N/A
Visualization observer readout
Local Sidereal Time
18:59:55
Azimuth
Unknown
Elevation
Unknown
Doppler factor
Unknown
Orbital elements
Apogee altitude
471.672 km
Perigee altitude
470.267 km
Semi-major axis
6,849.106 km
Eccentricity
0.0001
Inclination
53.1607°
RAAN
3.6915°
Arg. of periapsis
77.5096°
True anomaly
282.59053°
Mean anomaly
282.602°
Eccentric anomaly
282.59626°
Mean motion
3.82906 °/min
Orbital period
94.02 mins
BSTAR
0.00034443
Loading maneuver chart data...
Computing Atmospheric mass density...
Loading historical data...
Loading historical data...
Loading historical data...
Loading historical data...
Loading historical data...
Loading historical data...
Loading historical data...

Documentation

Showing up to 5 results
|